Date String (YYYY-MM-DD hh:mm:ss) UTC,Instrument flags,absolute air pressure of the measurement (hPa),sample flow rate (lpm),inlet stack bypass flow (lpm),air temperature of the measurement (°C),ambient temperature measured by the external sensor (°C),aerosol sample conditioner tube jacket temperature (°C),OPC LED temperature (°C),internal box temperature (°C),relative humidity of the measurement (%),span deviation,mass concentration of particles derived from Lorenz-Mie calculation of OPC scattering (μg/m³),mass concentration of particles derived from Lorenz-Mie calculation of OPC scattering (μg/m³),mass concentration of particles derived from Lorenz-Mie calculation of OPC scattering (μg/m³)
DateTimeUTC,F1_M11,P_M11,Q1_M11,Q2_M11,T1_M11,T2_M11,T3_M11,T4_M11,T5_M11,U1_M11,ZSPAN_M11,X0_M11,X2_M11,X1_M11
2024-06-01 16:00:00,SystemResetWarning,0828.9,5.00,000.00,030.4,029.8,000.0,038.6,032.1,023.6,0000.0,0013.44,0005.00,0004.06
2024-06-01 16:01:00,SystemResetWarning,0828.9,5.00,000.00,030.4,029.9,000.0,038.6,032.1,023.5,0000.0,0013.21,0005.02,0004.10
2024-06-01 16:02:00,SystemResetWarning,0828.9,5.01,000.00,030.5,029.9,000.0,038.6,032.2,022.6,0000.0,0014.20,0005.06,0004.13
2024-06-01 16:03:00,SystemResetWarning,0829.0,5.01,000.00,030.5,029.8,000.0,038.7,032.1,022.5,0000.0,0014.97,0005.07,0004.14
2024-06-01 16:04:00,SystemResetWarning,0828.8,4.98,000.00,030.3,028.0,000.0,038.8,031.2,022.6,0000.0,0014.67,0005.07,0004.16
2024-06-01 16:05:00,SystemResetWarning,0828.7,5.01,000.00,029.8,026.3,000.0,038.8,030.3,023.1,0000.0,0015.11,0005.11,0004.19
2024-06-01 16:06:00,SystemResetWarning,0828.7,5.00,000.00,029.6,026.6,000.0,038.7,030.4,023.4,0000.0,0015.78,0005.19,0004.22
2024-06-01 16:07:00,SystemResetWarning,0828.8,4.99,000.00,029.6,027.1,000.0,038.5,030.6,022.9,0000.0,0015.13,0005.19,0004.24
2024-06-01 16:08:00,SystemResetWarning,0828.7,5.00,000.00,029.6,027.5,000.0,038.4,030.9,023.6,0000.0,0015.28,0005.10,0004.24
2024-06-01 16:09:00,SystemResetWarning,0828.8,5.01,000.00,029.6,027.9,000.0,038.3,031.0,023.7,0000.0,0015.39,0005.09,0004.25
2024-06-01 16:10:00,SystemResetWarning,0828.8,5.00,000.00,029.6,028.2,000.0,038.3,031.2,023.7,0000.0,0015.10,0005.15,0004.27
2024-06-01 16:11:00,SystemResetWarning,0828.7,4.99,000.00,029.7,028.4,000.0,038.3,031.3,023.8,0000.0,0015.14,0005.20,0004.28
2024-06-01 16:12:00,SystemResetWarning,0828.8,4.99,000.00,029.7,028.6,000.0,038.2,031.4,022.9,0000.0,0015.33,0005.22,0004.27
2024-06-01 16:13:00,SystemResetWarning,0828.8,5.00,000.00,029.8,028.8,000.0,038.2,031.4,022.3,0000.0,0014.53,0005.22,0004.27
2024-06-01 16:14:00,SystemResetWarning,0828.7,5.00,000.00,029.8,029.0,000.0,038.2,031.5,020.6,0000.0,0014.60,0005.20,0004.26
2024-06-01 16:15:00,SystemResetWarning,0828.8,5.01,000.00,029.9,029.1,000.0,038.2,031.6,020.5,0000.0,0015.28,0005.17,0004.23
2024-06-01 16:16:00,SystemResetWarning,0828.7,4.99,000.00,029.9,029.2,000.0,038.2,031.6,022.1,0000.0,0015.62,0005.15,0004.19
2024-06-01 16:17:00,SystemResetWarning,0828.7,4.99,000.00,030.0,029.3,000.0,038.2,031.7,022.8,0000.0,0014.90,0005.11,0004.17
2024-06-01 16:18:00,SystemResetWarning,0828.7,4.99,000.00,030.0,029.4,000.0,038.3,031.8,023.6,0000.0,0014.88,0005.08,0004.17
2024-06-01 16:19:00,SystemResetWarning,0828.6,5.01,000.00,030.1,029.5,000.0,038.3,031.8,023.0,0000.0,0014.70,0005.14,0004.20
2024-06-01 16:20:00,SystemResetWarning,0828.6,5.01,000.00,030.1,029.6,000.0,038.3,031.8,022.5,0000.0,0015.00,0005.14,0004.20
2024-06-01 16:21:00,SystemResetWarning,0828.6,5.01,000.00,030.2,029.6,000.0,038.3,031.9,022.6,0000.0,0016.33,0005.13,0004.21
2024-06-01 16:22:00,SystemResetWarning,0828.6,5.00,000.00,030.2,029.7,000.0,038.4,031.9,022.6,0000.0,0015.83,0005.11,0004.22
2024-06-01 16:23:00,SystemResetWarning,0828.6,4.99,000.00,030.3,029.7,000.0,038.4,032.0,022.3,0000.0,0015.83,0005.15,0004.24
2024-06-01 16:24:00,SystemResetWarning,0828.6,5.00,000.00,030.3,029.8,000.0,038.5,032.0,020.9,0000.0,0015.75,0005.11,0004.23
2024-06-01 16:25:00,SystemResetWarning,0828.6,4.98,000.00,030.2,028.6,000.0,038.5,031.4,021.3,0000.0,0015.01,0005.09,0004.21
2024-06-01 16:26:00,SystemResetWarning,0828.6,5.01,000.00,029.8,026.5,000.0,038.6,030.4,022.0,0000.0,0014.88,0005.14,0004.23
2024-06-01 16:27:00,SystemResetWarning,0828.6,5.02,000.00,029.5,026.3,000.0,038.5,030.2,022.2,0000.0,0014.69,0005.15,0004.25
2024-06-01 16:28:00,SystemResetWarning,0828.6,4.99,000.00,029.4,026.8,000.0,038.4,030.4,021.8,0000.0,0015.08,0005.13,0004.24
2024-06-01 16:29:00,SystemResetWarning,0828.6,5.00,000.00,029.4,027.2,000.0,038.2,030.7,021.1,0000.0,0015.43,0005.10,0004.22
2024-06-01 16:30:00,SystemResetWarning,0828.6,5.00,000.00,029.4,027.6,000.0,038.2,030.8,020.9,0000.0,0014.88,0005.08,0004.18
2024-06-01 16:31:00,SystemResetWarning,0828.7,5.02,000.00,029.5,028.0,000.0,038.1,031.0,021.5,0000.0,0014.97,0005.07,0004.15
2024-06-01 16:32:00,SystemResetWarning,0828.7,5.00,000.00,029.5,028.3,000.0,038.1,031.1,021.2,0000.0,0013.40,0005.05,0004.11
2024-06-01 16:33:00,SystemResetWarning,0828.6,5.00,000.00,029.6,028.5,000.0,038.0,031.2,021.0,0000.0,0013.38,0005.02,0004.06
2024-06-01 16:34:00,SystemResetWarning,0828.6,5.00,000.00,029.6,028.7,000.0,038.0,031.3,021.1,0000.0,0013.66,0004.93,0004.02
2024-06-01 16:35:00,SystemResetWarning,0828.6,5.00,000.00,029.7,028.8,000.0,038.0,031.4,021.2,0000.0,0014.31,0004.94,0004.00
2024-06-01 16:36:00,SystemResetWarning,0828.6,5.00,000.00,029.7,029.0,000.0,038.1,031.4,022.2,0000.0,0014.72,0004.95,0004.01
2024-06-01 16:37:00,SystemResetWarning,0828.5,5.00,000.00,029.8,029.1,000.0,038.1,031.5,022.7,0000.0,0014.48,0004.94,0004.00
2024-06-01 16:38:00,SystemResetWarning,0828.6,5.00,000.00,029.8,029.2,000.0,038.1,031.6,023.1,0000.0,0015.30,0004.96,0004.02
2024-06-01 16:39:00,SystemResetWarning,0828.5,4.99,000.00,029.9,029.3,000.0,038.1,031.7,023.3,0000.0,0016.21,0005.03,0004.06
2024-06-01 16:40:00,SystemResetWarning,0828.6,5.00,000.00,030.0,029.4,000.0,038.1,031.7,022.8,0000.0,0016.68,0005.11,0004.11
2024-06-01 16:41:00,SystemResetWarning,0828.6,5.00,000.00,030.0,029.5,000.0,038.2,031.8,022.3,0000.0,0016.93,0005.20,0004.16
2024-06-01 16:42:00,SystemResetWarning,0828.6,5.00,000.00,030.1,029.6,000.0,038.2,031.8,022.8,0000.0,0016.69,0005.28,0004.22
2024-06-01 16:43:00,SystemResetWarning,0828.6,5.00,000.00,030.1,029.6,000.0,038.2,031.9,022.4,0000.0,0017.23,0005.30,0004.26
2024-06-01 16:44:00,SystemResetWarning,0828.6,5.00,000.00,030.1,029.5,000.0,038.3,031.8,023.0,0000.0,0017.33,0005.34,0004.30
2024-06-01 16:45:00,SystemResetWarning,0828.6,4.99,000.00,030.0,027.8,000.0,038.4,031.0,022.3,0000.0,0017.04,0005.45,0004.34
2024-06-01 16:46:00,SystemResetWarning,0828.6,5.01,000.00,029.5,026.1,000.0,038.3,030.2,022.3,0000.0,0016.43,0005.48,0004.38
2024-06-01 16:47:00,SystemResetWarning,0828.6,5.02,000.00,029.3,026.4,000.0,038.3,030.2,023.3,0000.0,0016.18,0005.49,0004.41
2024-06-01 16:48:00,SystemResetWarning,0828.6,5.00,000.00,029.3,026.8,000.0,038.1,030.4,022.6,0000.0,0016.01,0005.50,0004.44
2024-06-01 16:49:00,SystemResetWarning,0828.6,5.00,000.00,029.3,027.2,000.0,038.0,030.6,023.7,0000.0,0014.63,0005.52,0004.46
2024-06-01 16:50:00,SystemResetWarning,0828.7,5.00,000.00,029.3,027.6,000.0,038.0,030.8,024.0,0000.0,0014.28,0005.55,0004.46
2024-06-01 16:51:00,SystemResetWarning,0828.6,5.01,000.00,029.4,027.9,000.0,037.9,030.9,023.5,0000.0,0013.84,0005.55,0004.45
2024-06-01 16:52:00,SystemResetWarning,0828.6,5.00,000.00,029.4,028.2,000.0,037.9,031.0,023.6,0000.0,0013.80,0005.50,0004.43
2024-06-01 16:53:00,SystemResetWarning,0828.6,5.00,000.00,029.5,028.4,000.0,037.9,031.1,023.4,0000.0,0014.95,0005.47,0004.43
2024-06-01 16:54:00,SystemResetWarning,0828.6,5.00,000.00,029.5,028.6,000.0,037.9,031.2,023.5,0000.0,0014.41,0005.45,0004.43
2024-06-01 16:55:00,SystemResetWarning,0828.6,5.00,000.00,029.6,028.8,000.0,037.9,031.3,023.9,0000.0,0014.96,0005.47,0004.44
2024-06-01 16:56:00,SystemResetWarning,0828.7,5.00,000.00,029.6,028.9,000.0,037.9,031.4,023.7,0000.0,0015.11,0005.44,0004.44
2024-06-01 16:57:00,SystemResetWarning,0828.6,5.00,000.00,029.7,029.0,000.0,037.9,031.4,023.1,0000.0,0015.35,0005.44,0004.43
2024-06-01 16:58:00,SystemResetWarning,0828.6,5.00,000.00,029.7,029.1,000.0,037.9,031.5,022.4,0000.0,0015.74,0005.43,0004.40
2024-06-01 16:59:00,SystemResetWarning,0828.6,5.00,000.00,029.8,029.2,000.0,038.0,031.6,021.5,0000.0,0016.47,0005.38,0004.37
